Weather History for KRRT - September, 2013

Change the Weather History Date:

Saturday, September 14, 2013

  Actual Average Record
Temperature  
Mean Temperature 63 °F -  
Max Temperature 69 °F 67 °F 84 °F (1968)
Min Temperature 57 °F 43 °F 26 °F (1964)
Degree Days  
Heating Degree Days 2    
Growing Degree Days 13 (Base 50)    
Moisture  
Dew Point 55 °F    
Average Humidity 78    
Maximum Humidity 94    
Minimum Humidity 64    
Precipitation  
Precipitation 0.05 in - - ()
Sea Level Pressure  
Sea Level Pressure 29.87 in    
Wind  
Wind Speed 10 mph (WSW)    
Max Wind Speed 16 mph    
Max Gust Speed 22 mph    
Visibility 10 miles    
Events Rain    
Averages and records for this station are not official NWS values.
T = Trace of Precipitation, MM = Missing Value Source: NWS Daily Summary

Daily Weather History Graph

Daily Weather History Graph

Search for Another Location

Airport or City:

Trip Planner

Search our weather history database for the weather conditions in past years. The results will help you decide how hot, cold, wet, or windy it might be!

Date:

Astronomy

Sep. 14, 2013 Rise Set
Actual Time 6:56 AM CDT 7:35 PM CDT
Civil Twilight 6:25 AM CDT 8:07 PM CDT
Nautical Twilight 5:47 AM CDT 8:45 PM CDT
Astronomical Twilight 5:07 AM CDT 9:25 PM CDT
Moon 4:36 PM CDT (9/14) 1:08 AM CDT (9/14)
Length of Visible Light 13h 42m
Length of Day
12h 38m
Waxing Gibbous, 72% of the Moon is Illuminated
Sep 14
Waxing Gibbous
Sep 19
Full
Sep 26
Last Quarter
Oct 4
New
Oct 11
First Quarter

Hourly Weather History & Observations

Time (CDT) Temp. Dew Point Humidity Pressure Visibility Wind Dir Wind Speed Gust Speed Precip Events Conditions
12:14 AM 60.8 °F 51.8 °F 72% 29.90 in 10.0 mi South 10.4 mph - N/A   Clear
12:34 AM 60.8 °F 51.8 °F 72% 29.89 in 10.0 mi South 8.1 mph 16.1 mph N/A   Clear
12:54 AM 60.8 °F 50.0 °F 68% 29.89 in 10.0 mi SSW 9.2 mph 16.1 mph N/A   Clear
1:14 AM 60.8 °F 50.0 °F 68% 29.89 in 10.0 mi SSW 10.4 mph 16.1 mph N/A   Clear
1:34 AM 60.8 °F 50.0 °F 68% 29.89 in 10.0 mi SSW 10.4 mph 16.1 mph N/A   Clear
1:53 AM 60.8 °F 51.8 °F 72% 29.88 in 10.0 mi SSW 9.2 mph 18.4 mph N/A   Clear
2:14 AM 59.0 °F 51.8 °F 77% 29.88 in 10.0 mi SSW 9.2 mph 16.1 mph N/A   Clear
2:33 AM 59.0 °F 51.8 °F 77% 29.87 in 10.0 mi SSW 10.4 mph 16.1 mph N/A   Clear
2:54 AM 59.0 °F 51.8 °F 77% 29.86 in 10.0 mi SSW 10.4 mph 16.1 mph N/A   Clear
3:14 AM 59.0 °F 51.8 °F 77% 29.86 in 10.0 mi SSW 11.5 mph 18.4 mph N/A   Clear
3:33 AM 59.0 °F 51.8 °F 77% 29.86 in 10.0 mi SSW 12.7 mph 17.3 mph N/A   Clear
3:54 AM 59.0 °F 51.8 °F 77% 29.85 in 10.0 mi SSW 12.7 mph 18.4 mph N/A   Clear
4:14 AM 59.0 °F 51.8 °F 77% 29.85 in 10.0 mi SW 12.7 mph 19.6 mph N/A   Clear
4:34 AM 59.0 °F 50.0 °F 72% 29.85 in 10.0 mi SW 11.5 mph - N/A   Clear
4:54 AM 57.2 °F 50.0 °F 77% 29.85 in 10.0 mi SSW 12.7 mph 18.4 mph N/A   Clear
5:14 AM 57.2 °F 50.0 °F 77% 29.85 in 10.0 mi SSW 13.8 mph 21.9 mph N/A   Clear
5:34 AM 57.2 °F 50.0 °F 77% 29.85 in 10.0 mi SSW 13.8 mph 19.6 mph N/A   Clear
5:54 AM 57.2 °F 51.8 °F 82% 29.84 in 10.0 mi SSW 12.7 mph 20.7 mph N/A   Clear
6:14 AM 57.2 °F 51.8 °F 82% 29.84 in 10.0 mi SSW 13.8 mph 19.6 mph N/A   Clear
6:34 AM 57.2 °F 51.8 °F 82% 29.83 in 10.0 mi SSW 13.8 mph 20.7 mph N/A   Clear
6:54 AM 57.2 °F 51.8 °F 82% 29.83 in 10.0 mi SSW 11.5 mph 18.4 mph N/A   Clear
7:14 AM 57.2 °F 51.8 °F 82% 29.83 in 10.0 mi SSW 9.2 mph - N/A   Clear
7:34 AM 57.2 °F 51.8 °F 82% 29.82 in 10.0 mi SSW 12.7 mph 18.4 mph N/A   Clear
7:54 AM 57.2 °F 51.8 °F 82% 29.82 in 10.0 mi SSW 11.5 mph 20.7 mph N/A   Clear
8:14 AM 57.2 °F 51.8 °F 82% 29.83 in 10.0 mi SW 11.5 mph 17.3 mph N/A   Clear
8:34 AM 59.0 °F 51.8 °F 77% 29.82 in 10.0 mi SW 13.8 mph 17.3 mph N/A   Clear
8:54 AM 60.8 °F 51.8 °F 72% 29.82 in 10.0 mi SSW 16.1 mph 21.9 mph N/A   Clear
9:14 AM 60.8 °F 53.6 °F 77% 29.82 in 10.0 mi SW 11.5 mph 18.4 mph N/A   Clear
9:34 AM 62.6 °F 53.6 °F 72% 29.82 in 10.0 mi SSW 10.4 mph - N/A   Clear
9:54 AM 64.4 °F 55.4 °F 73% 29.81 in 10.0 mi SW 11.5 mph 18.4 mph N/A   Clear
10:14 AM 64.4 °F 55.4 °F 73% 29.81 in 10.0 mi SSW 11.5 mph 20.7 mph N/A   Clear
10:34 AM 64.4 °F 55.4 °F 73% 29.81 in 10.0 mi SSW 10.4 mph - N/A   Clear
10:54 AM 64.4 °F 55.4 °F 73% 29.81 in 10.0 mi SW 12.7 mph 18.4 mph N/A   Clear
11:14 AM 64.4 °F 57.2 °F 77% 29.82 in 10.0 mi SW 9.2 mph - N/A   Clear
11:34 AM 66.2 °F 57.2 °F 73% 29.81 in 10.0 mi WSW 9.2 mph - N/A   Clear
11:54 AM 68.0 °F 57.2 °F 68% 29.80 in 10.0 mi SW 10.4 mph - N/A   Clear
12:14 PM 68.0 °F 57.2 °F 68% 29.82 in 10.0 mi WSW 8.1 mph - N/A   Clear
12:34 PM 68.0 °F 57.2 °F 68% 29.82 in 10.0 mi West 6.9 mph - N/A   Clear
12:54 PM 66.2 °F 57.2 °F 73% 29.83 in 10.0 mi WNW 10.4 mph - N/A   Clear
1:14 PM 66.2 °F 57.2 °F 73% 29.83 in 10.0 mi West 6.9 mph - N/A   Clear
1:34 PM 68.0 °F 57.2 °F 68% 29.83 in 10.0 mi WNW 5.8 mph - N/A   Clear
1:54 PM 69.8 °F 57.2 °F 64% 29.84 in 10.0 mi NW 5.8 mph - N/A   Clear
2:13 PM 69.8 °F 57.2 °F 64% 29.85 in 10.0 mi West 5.8 mph - N/A   Clear
2:34 PM 69.8 °F 57.2 °F 64% 29.85 in 10.0 mi WSW 3.5 mph - N/A   Scattered Clouds
2:54 PM 69.8 °F 57.2 °F 64% 29.85 in 10.0 mi Calm Calm - N/A   Mostly Cloudy
3:13 PM 69.8 °F 59.0 °F 68% 29.85 in 10.0 mi Calm Calm - N/A   Overcast
3:34 PM 68.0 °F 57.2 °F 68% 29.85 in 10.0 mi Calm Calm - N/A   Mostly Cloudy
3:54 PM 66.2 °F 59.0 °F 78% 29.86 in 10.0 mi WNW 4.6 mph - N/A Rain Light Rain
4:14 PM 64.4 °F 60.8 °F 88% 29.86 in 7.0 mi NNE 8.1 mph - 0.02 in Rain Rain
4:34 PM 62.6 °F 59.0 °F 88% 29.86 in 10.0 mi NNE 6.9 mph - 0.04 in Rain Light Rain
4:54 PM 62.6 °F 59.0 °F 88% 29.88 in 10.0 mi North 6.9 mph - 0.05 in   Drizzle
5:14 PM 62.6 °F 57.2 °F 82% 29.88 in 10.0 mi North 5.8 mph - N/A   Light Drizzle
5:34 PM 60.8 °F 57.2 °F 88% 29.89 in 10.0 mi North 8.1 mph - N/A   Mostly Cloudy
5:54 PM 60.8 °F 57.2 °F 88% 29.89 in 10.0 mi North 6.9 mph - N/A   Overcast
6:14 PM 62.6 °F 57.2 °F 82% 29.90 in 10.0 mi North 8.1 mph - N/A   Overcast
6:34 PM 60.8 °F 57.2 °F 88% 29.90 in 10.0 mi North 5.8 mph - N/A   Overcast
6:54 PM 60.8 °F 57.2 °F 88% 29.90 in 10.0 mi North 8.1 mph - N/A   Overcast
7:14 PM 60.8 °F 57.2 °F 88% 29.91 in 10.0 mi NNW 4.6 mph - N/A   Overcast
7:34 PM 60.8 °F 57.2 °F 88% 29.91 in 10.0 mi Calm Calm - N/A   Overcast
7:54 PM 60.8 °F 57.2 °F 88% 29.91 in 10.0 mi NNW 3.5 mph - N/A   Overcast
8:14 PM 60.8 °F 57.2 °F 88% 29.92 in 10.0 mi North 4.6 mph - N/A   Overcast
8:34 PM 60.8 °F 57.2 °F 88% 29.93 in 10.0 mi North 4.6 mph - N/A   Overcast
8:54 PM 60.8 °F 55.4 °F 82% 29.94 in 10.0 mi NNW 4.6 mph - N/A   Mostly Cloudy
9:14 PM 60.8 °F 55.4 °F 82% 29.94 in 10.0 mi NNW 4.6 mph - N/A   Overcast
9:34 PM 57.2 °F 55.4 °F 94% 29.95 in 10.0 mi NNW 5.8 mph - N/A   Scattered Clouds
9:54 PM 57.2 °F 53.6 °F 88% 29.95 in 10.0 mi NNW 5.8 mph - N/A   Clear
10:14 PM 57.2 °F 53.6 °F 88% 29.96 in 10.0 mi NNW 6.9 mph - N/A   Clear
10:34 PM 57.2 °F 53.6 °F 88% 29.96 in 10.0 mi NNW 10.4 mph - N/A   Mostly Cloudy
10:54 PM 57.2 °F 53.6 °F 88% 29.97 in 10.0 mi North 11.5 mph - N/A   Scattered Clouds
11:14 PM 57.2 °F 53.6 °F 88% 29.99 in 10.0 mi North 15.0 mph 19.6 mph N/A   Clear
11:34 PM 57.2 °F 53.6 °F 88% 30.00 in 10.0 mi North 15.0 mph 19.6 mph N/A   Clear
11:54 PM 57.2 °F 53.6 °F 88% 30.01 in 10.0 mi NNE 13.8 mph 21.9 mph N/A   Mostly Cloudy